Вернуться в каталог

BREEZE-M DEB

АктивенHEO
NORAD 38581·DEBRIS·🇷🇺 Russia

Запущен Mar 14, 2008 с Baikonur Cosmodrome

Loading…

Ближайшие Пролёты (ближайшие 24 часа)

TLE

СвежийSource: Space-Track

Эпоха: Sep 12, 2026, 23:40 UTC

1 38581U 08011AC  26255.98651446  .00001092  00000-0  21168-2 0  9990
2 38581  49.1855 117.1138 5276687 327.6207   8.8848  4.93118553 37037

Отслеживайте BREEZE-M DEB в реальном времени с AllMySat

Download on the App Store